This is the latest recevied weather packets stored in our database for station/object KE0PRS. If no packets are shown the sender has not sent any weather packets the latest 10 day(s).
| Time | Temp. | Humidity | Pressure | Rain* | Wind** | Luminosity | Snow |
|---|---|---|---|---|---|---|---|
| 1777773754 | 18.33° C | 32% | 1017.6 hPa | 0 mm | - | 0 W/m² | - |
| 1777773450 | 18.33° C | 32% | 1017.5 hPa | 0 mm | - | 0 W/m² | - |
| 1777773147 | 18.33° C | 32% | 1017.4 hPa | 0 mm | - | 0 W/m² | - |
| 1777772843 | 18.33° C | 32% | 1017.6 hPa | 0 mm | - | 0 W/m² | - |
| 1777772541 | 18.89° C | 31% | 1017.4 hPa | 0 mm | - | 1 W/m² | - |
| 1777772238 | 18.89° C | 31% | 1017.5 hPa | 0 mm | - | 1 W/m² | - |
| 1777771936 | 18.89° C | 31% | 1017.6 hPa | 0 mm | - | 2 W/m² | - |
| 1777771633 | 18.89° C | 31% | 1017.5 hPa | 0 mm | - | 4 W/m² | - |
| 1777771330 | 19.44° C | 30% | 1017.7 hPa | 0 mm | - | 6 W/m² | - |
| 1777771026 | 20° C | 30% | 1017.6 hPa | 0 mm | - | 9 W/m² | - |
| 1777770723 | 20° C | 29% | 1017.4 hPa | 0 mm | - | 12 W/m² | - |
| 1777770419 | 20° C | 29% | 1017.4 hPa | 0 mm | - | 15 W/m² | - |
| 1777770117 | 20.56° C | 29% | 1017.5 hPa | 0 mm | - | 18 W/m² | - |
| 1777769814 | 20.56° C | 28% | 1017.7 hPa | 0 mm | - | 22 W/m² | - |
| 1777769511 | 20.56° C | 28% | 1017.5 hPa | 0 mm | - | 24 W/m² | - |
| 1777769207 | 21.11° C | 28% | 1017.5 hPa | 0 mm | - | 27 W/m² | - |
| 1777768906 | 21.11° C | 27% | 1017.6 hPa | 0 mm | - | 35 W/m² | - |
| 1777768603 | 21.11° C | 27% | 1017.6 hPa | 0 mm | - | 32 W/m² | - |
| 1777768300 | 21.11° C | 27% | 1017.6 hPa | 0 mm | - | 33 W/m² | - |
| 1777767996 | 21.67° C | 26% | 1017.7 hPa | 0 mm | - | 36 W/m² | - |
| 1777767693 | 21.67° C | 25% | 1017.8 hPa | 0 mm | - | 56 W/m² | - |
| 1777767389 | 21.67° C | 25% | 1017.8 hPa | 0 mm | - | 89 W/m² | - |
| 1777767086 | 22.22° C | 25% | 1017.9 hPa | 0 mm | - | 99 W/m² | - |
| 1777766784 | 22.22° C | 25% | 1018 hPa | 0 mm | - | 110 W/m² | - |
| 1777766481 | 22.22° C | 26% | 1018.1 hPa | 0 mm | - | 121 W/m² | - |
* Rain latest hour (hover to see other rain measurements)
** Current wind speed in m/s (hover to see current wind gust speed)